STARLINK-32715, 62569

Orbit data source: Space-Track

STARLINK-32715, 62569 is a payload satellite owned by SpaceX/Seattle (US) in LEO that was launched on Fri, 10 Jan 2025 UTC via an FALCON 9 launch vehicle from the Air Force Eastern Test Range (AFETR). Payload-class satellites include a variety of spacecraft equipped with specific instruments for various scientific and technological missions. These include communications satellites like Starlink; space stations such as the ISS; scientific satellites like the Hubble; Earth observation satellites from companies like Planet Labs, Umbra, and HawkEye 360; GPS; miniature CubeSats for education and research; and military/defense satellites.

Loading next visibility...
Identifier
62569, 2025-006R
Orbit
LEO
Country
Flag of USUS
Related business
Manufacturer
SpaceX/Seattle
Mission
Operational Commercial Communications
Bus & Motor
STARLINK V2M, Unknown motor
Mass
730 kg wet, ~700 kg dry
Launch date (UTC)
2025-01-10 (1 year ago)
Launch vehicle
FALCON 9
Launch site
Air Force Eastern Test Range (AFETR)
Object type
Payload
Rocket body
Debris
Shape & HBR
Box + 2 Pan, 17.7 m
Radar Cross Section
33.884 m², Large (>1 m²)

Expand to show TLE details & history
Last TLE update: 10 hours ago

TLE from 10 hours ago
0 STARLINK-32715
1 62569U 25006R   26171.43885772  .00009119  00000-0  34028-3 0  9992
2 62569  43.0019  72.5783 0001578 277.8752  82.1921 15.27601297 80571
Epoch: 2026-06-20T10:31Z
TLE epoch observation values (Epoch: 2026-06-20T10:31:57.307Z)
Latitude
-0.00001°
Longitude
5.93605°
Altitude
482.614 km
Speed
7.626 km/s
True Right ascension
04h 50m 18s
True Declination
0° 00' 00"
Sunlit
Object was in daylight at epoch
Visualization orbit readout
Latitude
Unknown
Longitude
Unknown
Altitude
Unknown
Speed
Unknown
Apparent Right ascension
Unknown
Apparent Declination
Unknown
Sunlit
N/A
Visualization observer readout
Local Sidereal Time
07:15:03
Azimuth
Unknown
Elevation
Unknown
Doppler factor
Unknown
Orbital elements
Apogee altitude
486.013 km
Perigee altitude
483.847 km
Semi-major axis
6,863.067 km
Eccentricity
0.00016
Inclination
43.0019°
RAAN
72.5783°
Arg. of periapsis
277.8752°
True anomaly
82.21002°
Mean anomaly
82.1921°
Eccentric anomaly
82.20106°
Mean motion
3.81738 °/min
Orbital period
94.31 mins
BSTAR
0.00034028
Loading maneuver chart data...
Computing Atmospheric mass density...
Loading historical data...
Loading historical data...
Loading historical data...
Loading historical data...
Loading historical data...
Loading historical data...
Loading historical data...

Documentation

Showing up to 5 results
|